Weather History for Glasgow, United Kingdom

Change the Weather History Date:

Tuesday, November 8, 2011

  Actual Average Record
Temperature  
Mean Temperature 45 °F -  
Max Temperature 51 °F 46 °F 55 °F (1998)
Min Temperature 39 °F 36 °F 28 °F (1996)
Degree Days  
Heating Degree Days 20    
Moisture  
Dew Point 45 °F    
Average Humidity 91    
Maximum Humidity 100    
Minimum Humidity 87    
Precipitation  
Precipitation 0.00 in - - ()
Sea Level Pressure  
Sea Level Pressure 30.01 in    
Wind  
Wind Speed 6 mph ()    
Max Wind Speed 14 mph    
Max Gust Speed -    
Visibility 4.2 miles    
Events      
Averages and records for this station are not official NWS values.
T = Trace of Precipitation, MM = Missing Value Source: Averaged Metar Reports

Daily Weather History Graph

Daily Weather History Graph

Search for Another Location

Airport:

Trip Planner

Search our weather history database for the weather conditions in past years. The results will help you decide how hot, cold, wet, or windy it might be!

Date:

Astronomy

Nov. 08, 2011 Rise Set
Actual Time 7:38 AM GMT 4:23 PM GMT
Civil Twilight 6:57 AM GMT 5:04 PM GMT
Nautical Twilight 6:12 AM GMT 5:49 PM GMT
Astronomical Twilight 5:29 AM GMT 6:32 PM GMT
Moon 3:07 PM GMT (11/8) 5:09 AM GMT (11/8)
Length of Visible Light 10h 07m
Length of Day
8h 45m
Waxing Gibbous, 95% of the Moon is Illuminated
Nov 8
Waxing Gibbous
Nov 10
Full
Nov 18
Last Quarter
Nov 25
New
Dec 2
First Quarter

Hourly Weather History & Observations

Time (GMT) Temp. Windchill Dew Point Humidity Pressure Visibility Wind Dir Wind Speed Gust Speed Precip Events Conditions
12:20 AM 39.2 °F - 37.4 °F 93% 30.15 in 2.8 mi Calm Calm - N/A   Mostly Cloudy
12:50 AM 41.0 °F 38.0 °F 39.2 °F 93% 30.15 in - East 4.6 mph - N/A   Overcast
1:20 AM 39.2 °F 37.0 °F 39.2 °F 100% 30.15 in - SW 3.5 mph - N/A   Overcast
1:50 AM 39.2 °F 35.9 °F 39.2 °F 100% 30.12 in - WSW 4.6 mph - N/A   Overcast
2:20 AM 41.0 °F - 39.2 °F 93% 30.12 in 3.1 mi West 2.3 mph - N/A   Haze
2:50 AM 41.0 °F 39.0 °F 39.2 °F 93% 30.12 in 3.1 mi West 3.5 mph - N/A   Haze
3:20 AM 41.0 °F - 39.2 °F 93% 30.09 in - Calm Calm - N/A   Haze
3:50 AM 41.0 °F - 41.0 °F 100% 30.09 in - Calm Calm - N/A   Haze
4:20 AM 41.0 °F - 41.0 °F 100% 30.09 in - SW 2.3 mph - N/A   Haze
4:50 AM 41.0 °F - 41.0 °F 100% 30.09 in - Calm Calm - N/A   Haze
5:20 AM 42.8 °F - 41.0 °F 93% 30.06 in 3.1 mi Variable 2.3 mph - N/A   Haze
5:50 AM 46.4 °F 42.9 °F 44.6 °F 93% 30.06 in 4.3 mi East 6.9 mph - N/A   Mostly Cloudy
6:20 AM 46.4 °F 42.4 °F 44.6 °F 93% 30.06 in 5.6 mi ENE 8.1 mph - N/A   Mostly Cloudy
6:50 AM 48.2 °F - 46.4 °F 93% 30.06 in 5.0 mi East 8.1 mph - N/A   Mostly Cloudy
7:20 AM 48.2 °F - 46.4 °F 93% 30.06 in 5.6 mi East 8.1 mph - N/A   Mostly Cloudy
7:50 AM 48.2 °F - 46.4 °F 93% 30.06 in 4.3 mi East 8.1 mph - N/A   Overcast
8:20 AM 48.2 °F - 46.4 °F 93% 30.06 in 5.6 mi ENE 10.4 mph - N/A   Overcast
8:50 AM 48.2 °F - 46.4 °F 93% 30.04 in 6.2 mi ENE 11.5 mph - N/A   Mostly Cloudy
9:20 AM 48.2 °F - 46.4 °F 93% 30.04 in 6.2 mi ENE 12.7 mph - N/A   Overcast
9:50 AM 50.0 °F - 46.4 °F 87% 30.04 in 5.6 mi ENE 11.5 mph - N/A   Mostly Cloudy
10:20 AM 50.0 °F - 48.2 °F 94% 30.04 in 3.1 mi ENE 11.5 mph - N/A   Overcast
10:50 AM 50.0 °F - 48.2 °F 94% 30.04 in 5.6 mi ENE 10.4 mph - N/A   Overcast
11:20 AM 50.0 °F - 48.2 °F 94% 30.04 in 6.2 mi ENE 10.4 mph - N/A   Overcast
11:50 AM 50.0 °F - 48.2 °F 94% 30.01 in 5.6 mi ENE 11.5 mph - N/A   Overcast
12:20 PM 50.0 °F - 48.2 °F 94% 30.01 in 5.6 mi ENE 11.5 mph - N/A   Overcast
12:50 PM 51.8 °F - 48.2 °F 88% 29.98 in 3.7 mi ENE 11.5 mph - N/A   Mostly Cloudy
1:20 PM 51.8 °F - 48.2 °F 88% 29.98 in 4.3 mi ENE 13.8 mph - N/A   Mostly Cloudy
1:50 PM 51.8 °F - 48.2 °F 88% 29.98 in 3.7 mi ENE 12.7 mph - N/A   Overcast
2:20 PM 51.8 °F - 48.2 °F 88% 29.98 in 4.3 mi ENE 12.7 mph - N/A   Overcast
2:50 PM 51.8 °F - 48.2 °F 88% 29.95 in 4.3 mi ENE 9.2 mph - N/A   Overcast
3:20 PM 51.8 °F - 48.2 °F 88% 29.95 in 4.3 mi ENE 8.1 mph - N/A   Overcast
3:50 PM 51.8 °F - 48.2 °F 88% 29.95 in 3.7 mi ENE 11.5 mph - N/A   Overcast
4:20 PM 51.8 °F - 48.2 °F 88% 29.95 in 3.1 mi ENE 11.5 mph - N/A   Haze
4:50 PM 51.8 °F - 48.2 °F 88% 29.95 in 3.1 mi ENE 10.4 mph - N/A   Haze
5:20 PM 51.8 °F - 48.2 °F 88% 29.95 in 3.7 mi ENE 8.1 mph - N/A   Mostly Cloudy
5:50 PM 51.8 °F - 48.2 °F 88% 29.95 in 3.7 mi ENE 11.5 mph - N/A   Mostly Cloudy
6:20 PM 51.8 °F - 48.2 °F 88% 29.95 in 3.7 mi East 11.5 mph - N/A   Mostly Cloudy
6:50 PM 50.0 °F - 46.4 °F 87% 29.95 in 3.7 mi East 10.4 mph - N/A   Mostly Cloudy
7:20 PM 50.0 °F - 46.4 °F 87% 29.95 in 3.7 mi ENE 9.2 mph - N/A   Mostly Cloudy
7:50 PM 50.0 °F - 46.4 °F 87% 29.95 in 3.7 mi ENE 8.1 mph - N/A   Mostly Cloudy
8:20 PM 50.0 °F - 46.4 °F 87% 29.95 in - ENE 10.4 mph - N/A   Haze
8:50 PM 50.0 °F - 46.4 °F 87% 29.92 in - East 11.5 mph - N/A   Haze
9:20 PM 50.0 °F - 46.4 °F 87% 29.92 in - ENE 10.4 mph - N/A   Haze
9:50 PM 50.0 °F - 46.4 °F 87% 29.92 in 2.5 mi ENE 10.4 mph - N/A   Haze
10:20 PM 50.0 °F - 46.4 °F 87% 29.92 in 2.5 mi East 9.2 mph - N/A   Haze
10:50 PM 50.0 °F - 46.4 °F 87% 29.92 in 2.5 mi East 11.5 mph - N/A   Haze
11:20 PM 50.0 °F - 46.4 °F 87% 29.89 in - East 9.2 mph - N/A   Haze
11:50 PM 50.0 °F - 46.4 °F 87% 29.89 in 2.8 mi East 8.1 mph - N/A   Haze